Regional Weather Roundup
Issued by NWS Charleston, WV

Home | Current Version | Previous Version | Graphics & Text | Print | Product List | Glossary On
Versions: 1 2 3 4 5 6 7 8 9 10 11 12 13 14 15 16 17 18 19 20 21 22 23 24 25 26 27
000
ASUS41 KRLX 232110
RWRRLX
West Virginia Regional Weather Roundup
National Weather Service Charleston WV
500 PM EDT TUE MAY 23 2017

Note: "fair" indicates few or no clouds below 12,000 feet with no
significant weather and/or obstructions to visibility.

WVZ003-232200-
Northern Panhandle of West Virginia

CITY           SKY/WX    TMP DP  RH WIND       PRES   REMARKS
WHEELING       CLOUDY    70  51  51 SE9       29.75F
$$

WVZ009-232200-
Northwest West Virginia

CITY           SKY/WX    TMP DP  RH WIND       PRES   REMARKS
PARKERSBURG    CLOUDY    71  57  61 S12       29.76F
$$

WVZ006-232200-
Western West Virginia

CITY           SKY/WX    TMP DP  RH WIND       PRES   REMARKS
HUNTINGTON     LGT RAIN  67  62  84 SE8       29.71F
$$

WVZ015-232200-
West Central West Virginia

CITY           SKY/WX    TMP DP  RH WIND       PRES   REMARKS
CHARLESTON     LGT RAIN  65  60  84 E3        29.74F
$$

WVZ022-031-232200-
North Central West Virginia

CITY           SKY/WX    TMP DP  RH WIND       PRES   REMARKS
CLARKSBURG     LGT RAIN  65  53  65 E5        29.77F
MORGANTOWN     CLOUDY    65  49  56 SE8       29.80S
$$

WVZ025-035-042-045-232200-
Southern West Virginia

CITY           SKY/WX    TMP DP  RH WIND       PRES   REMARKS
BECKLEY        CLOUDY    58  55  90 E8        29.79F
LOGAN          PTSUNNY   64  61  88 CALM      29.74F
BLUEFIELD      LGT RAIN  55  53  93 E7        29.79F
LEWISBURG      LGT RAIN  57  54  91 NE3       29.81F
$$

WVZ047-232200-
Northern Mountains of West Virginia

CITY           SKY/WX    TMP DP  RH WIND       PRES   REMARKS
ELKINS         CLOUDY    64  51  62 SE7       29.81S
$$

WVZ052-232200-
Eastern Panhandle of West Virginia

CITY           SKY/WX    TMP DP  RH WIND       PRES   REMARKS
MARTINSBURG    CLOUDY    64  53  67 E3        29.84F
PETERSBURG     CLOUDY    65  53  66 CALM      29.84F
$$




USA.gov is the U.S. government's official web portal to all federal, state and local government web resources and services.